Holloman AFB, NM

10:47 AM MST on February 23, 2017 (GMT -0700)
Holloman Air Force Base

Weather History for KHMN - March, 2014

Change the Weather History Date:

Sunday, March 9, 2014

  Actual Average Record
Temperature  
Mean Temperature 46 °F -  
Max Temperature 60 °F 64 °F 77 °F (1997)
Min Temperature 32 °F 34 °F 23 °F (2012)
Degree Days  
Heating Degree Days 19    
Moisture  
Dew Point 20 °F    
Average Humidity 37    
Maximum Humidity 63    
Minimum Humidity 20    
Precipitation  
Precipitation 0.00 in - - ()
Sea Level Pressure  
Sea Level Pressure 30.20 in    
Wind  
Wind Speed 4 mph (NE)    
Max Wind Speed 7 mph    
Max Gust Speed -    
Visibility 10 miles    
Events      
Averages and records for this station are not official NWS values.
T = Trace of Precipitation, MM = Missing Value Source: NWS Daily Summary

Daily Weather History Graph

Daily Weather History Graph

Search for Another Location

Airport or City:

Trip Planner

Search our weather history database for the weather conditions in past years. The results will help you decide how hot, cold, wet, or windy it might be!

Date:

Astronomy

Mar. 09, 2014 Rise Set
Actual Time 7:22 AM MDT 7:07 PM MDT
Civil Twilight 6:57 AM MDT 7:32 PM MDT
Nautical Twilight 6:29 AM MDT 8:01 PM MDT
Astronomical Twilight 6:00 AM MDT 8:29 PM MDT
Moon 1:16 PM MDT (3/9) 3:36 AM MDT (3/9)
Length of Visible Light 12h 34m
Length of Day
11h 45m
First Quarter, 61% of the Moon is Illuminated
Mar 9
First Quarter
Mar 16
Full
Mar 23
Last Quarter
Mar 30
New
Apr 7
First Quarter

Hourly Weather History & Observations

Time (MDT) Temp. Windchill Dew Point Humidity Pressure Visibility Wind Dir Wind Speed Gust Speed Precip Events Conditions
12:58 AM 40.8 °F 36.9 °F 22.1 °F 47% 30.23 in 10.0 mi NE 5.8 mph - N/A   Clear
1:58 AM 39.9 °F 36.7 °F 21.9 °F 49% 30.23 in 10.0 mi NNW 4.6 mph - N/A   Clear
3:58 AM 39.9 °F - 22.5 °F 50% 30.21 in 10.0 mi Calm Calm - N/A   Clear
4:58 AM 34.3 °F - 20.3 °F 57% 30.25 in 10.0 mi Calm Calm - N/A   Clear
5:58 AM 34.5 °F 31.6 °F 21.4 °F 59% 30.27 in 10.0 mi ESE 3.5 mph - N/A   Clear
6:58 AM 35.4 °F 30.5 °F 22.5 °F 59% 30.29 in 10.0 mi ESE 5.8 mph - N/A   Clear
7:58 AM 32.9 °F 27.5 °F 21.6 °F 63% 30.31 in 10.0 mi ENE 5.8 mph - N/A   Clear
8:58 AM 43.5 °F 41.9 °F 24.6 °F 47% 30.30 in 10.0 mi ENE 3.5 mph - N/A   Clear
9:58 AM 48.6 °F - 25.0 °F 40% 30.28 in 10.0 mi South 4.6 mph - N/A   Clear
10:58 AM 50.7 °F - 25.2 °F 37% 30.28 in 10.0 mi West 6.9 mph - N/A   Clear
11:58 AM 51.8 °F - 24.4 °F 34% 30.26 in 10.0 mi NNE 2.3 mph - N/A   Clear
12:58 PM 55.0 °F - 21.7 °F 27% 30.23 in 10.0 mi Variable 4.6 mph - N/A   Clear
1:58 PM 56.5 °F - 22.1 °F 26% 30.21 in 10.0 mi North 1.2 mph - N/A   Clear
2:58 PM 58.3 °F - 20.1 °F 23% 30.17 in 10.0 mi West 4.6 mph - N/A   Clear
3:58 PM 60.1 °F - 19.2 °F 21% 30.14 in 10.0 mi WSW 6.9 mph - N/A   Clear
4:58 PM 60.4 °F - 19.4 °F 20% 30.14 in 10.0 mi Variable 3.5 mph - N/A   Clear
5:58 PM 59.9 °F - 19.0 °F 21% 30.12 in 10.0 mi West 3.5 mph - N/A   Clear
6:58 PM 58.5 °F - 18.5 °F 21% 30.11 in 10.0 mi WNW 1.2 mph - N/A   Clear
7:58 PM 52.5 °F - 16.9 °F 25% 30.14 in 10.0 mi Calm Calm - N/A   Clear
8:58 PM 51.1 °F - 17.4 °F 26% 30.12 in 10.0 mi East 2.3 mph - N/A   Clear
9:58 PM 42.4 °F - 13.8 °F 31% 30.14 in 10.0 mi NNE 2.3 mph - N/A   Clear
10:58 PM 39.9 °F 35.1 °F 15.4 °F 37% 30.17 in 10.0 mi East 6.9 mph - N/A   Clear
11:58 PM 38.5 °F 36.1 °F 15.6 °F 39% 30.15 in 10.0 mi SE 3.5 mph - N/A   Clear
12:58 AM 41.9 °F 39.0 °F 18.3 °F 39% 30.13 in 10.0 mi ESE 4.6 mph - N/A   Clear